When you browse on this site, cookies collect data to enhance your experience and personalize the content and advertising you see.
Visit our Privacy Policy to learn more. By continuing to use the site, you agree to this use of cookies and data.
  • In Hungary
  • List of Countries
  • For 7 days
  • Water Temperature
  • Satellite Maps
  • Weather Map
  • News
  • Weather Widgets
  • user-avatar
    Login

    Hourly Weather San Javier

    Today, 21 January, Monday

    Time Temperature Precipitation Wind Pressure Humidity
    00:00 +8°C° 0 mm 6 mps 759 mmHg 54%
    01:00 +8°C° 0 mm 6 mps 759 mmHg 56%
    02:00 +7°C° 0 mm 6 mps 759 mmHg 58%
    03:00 +7°C° 0 mm 5 mps 759 mmHg 59%
    04:00 +6°C° 0 mm 5 mps 760 mmHg 60%
    05:00 +6°C° 0 mm 5 mps 760 mmHg 61%
    06:00 +6°C° 0 mm 5 mps 760 mmHg 62%
    07:00 +5°C° 0 mm 6 mps 760 mmHg 60%
    08:00 +7°C° 0 mm 6 mps 761 mmHg 57%
    09:00 +8°C° 0 mm 6 mps 761 mmHg 55%
    10:00 +9°C° 0 mm 6 mps 761 mmHg 50%
    11:00 +11°C° 0 mm 6 mps 761 mmHg 45%
    12:00 +13°C° 0 mm 5 mps 761 mmHg 39%
    13:00 +14°C° 0 mm 5 mps 761 mmHg 38%
    14:00 +14°C° 0 mm 5 mps 761 mmHg 36%
    15:00 +14°C° 0 mm 4 mps 761 mmHg 34%
    16:00 +13°C° 0 mm 3 mps 761 mmHg 38%
    17:00 +11°C° 0 mm 3 mps 761 mmHg 42%
    18:00 +10°C° 0 mm 2 mps 761 mmHg 46%
    19:00 +9°C° 0 mm 2 mps 762 mmHg 47%
    20:00 +9°C° 0 mm 3 mps 762 mmHg 47%
    21:00 +9°C° 0 mm 3 mps 762 mmHg 48%
    22:00 +7°C° 0 mm 4 mps 762 mmHg 48%
    23:00 +7°C° 0 mm 4 mps 762 mmHg 47%

    Tomorrow, 22 January, Tuesday

    Time Temperature Precipitation Wind Pressure Humidity
    00:00 +6°C° 0 mm 5 mps 762 mmHg 47%
    01:00 +6°C° 0 mm 5 mps 762 mmHg 50%
    02:00 +5°C° 0 mm 5 mps 762 mmHg 53%
    03:00 +4°C° 0 mm 6 mps 762 mmHg 56%
    04:00 +5°C° 0 mm 5 mps 761 mmHg 57%
    05:00 +3°C° 0 mm 5 mps 761 mmHg 57%
    06:00 +3°C° 0 mm 5 mps 761 mmHg 58%
    07:00 +5°C° 0 mm 5 mps 761 mmHg 56%
    08:00 +6°C° 0 mm 4 mps 761 mmHg 54%
    09:00 +7°C° 0 mm 4 mps 761 mmHg 51%
    10:00 +10°C° 0 mm 4 mps 760 mmHg 46%
    11:00 +11°C° 0 mm 4 mps 759 mmHg 41%
    12:00 +13°C° 0 mm 4 mps 759 mmHg 35%
    13:00 +13°C° 0 mm 4 mps 758 mmHg 34%
    14:00 +14°C° 0 mm 4 mps 757 mmHg 32%
    15:00 +15°C° 0 mm 4 mps 756 mmHg 30%
    16:00 +14°C° 0.1 mm 4 mps 756 mmHg 37%
    17:00 +13°C° 0.1 mm 4 mps 755 mmHg 43%
    18:00 +11°C° 0.1 mm 4 mps 755 mmHg 50%
    19:00 +10°C° 0.2 mm 5 mps 755 mmHg 52%
    20:00 +10°C° 0.2 mm 5 mps 755 mmHg 55%
    21:00 +10°C° 0.2 mm 6 mps 755 mmHg 58%
    22:00 +10°C° 0 mm 7 mps 755 mmHg 59%
    23:00 +9°C° 0 mm 7 mps 755 mmHg 60%

    Day after tomorrow, 23 January, Wednesday

    Time Temperature Precipitation Wind Pressure Humidity
    00:00 +9°C° 0 mm 8 mps 755 mmHg 60%
    01:00 +8°C° 0 mm 9 mps 755 mmHg 59%
    02:00 +8°C° 0 mm 10 mps 755 mmHg 57%
    03:00 +8°C° 0 mm 11 mps 755 mmHg 55%
    04:00 +7°C° 0 mm 10 mps 755 mmHg 56%
    05:00 +7°C° 0 mm 9 mps 755 mmHg 57%
    06:00 +6°C° 0 mm 7 mps 755 mmHg 57%
    07:00 +7°C° 0 mm 8 mps 755 mmHg 54%
    08:00 +9°C° 0 mm 8 mps 754 mmHg 50%
    09:00 +10°C° 0 mm 9 mps 754 mmHg 47%
    10:00 +12°C° 0 mm 9 mps 753 mmHg 42%
    11:00 +16°C° 0 mm 10 mps 753 mmHg 38%
    12:00 +18°C° 0 mm 11 mps 752 mmHg 34%
    13:00 +18°C° 0 mm 11 mps 752 mmHg 35%
    14:00 +17°C° 0 mm 11 mps 751 mmHg 37%
    15:00 +17°C° 0 mm 11 mps 751 mmHg 38%
    16:00 +16°C° 0 mm 10 mps 751 mmHg 42%
    17:00 +15°C° 0 mm 8 mps 751 mmHg 45%
    18:00 +15°C° 0 mm 6 mps 751 mmHg 49%
    19:00 +14°C° 0 mm 6 mps 752 mmHg 51%
    20:00 +14°C° 0 mm 6 mps 752 mmHg 53%
    21:00 +13°C° 0 mm 6 mps 752 mmHg 55%
    22:00 +13°C° 0.1 mm 6 mps 752 mmHg 56%
    23:00 +13°C° 0.1 mm 6 mps 753 mmHg 57%

    24 January, Thursday

    Time Temperature Precipitation Wind Pressure Humidity
    00:00 +11°C° 0.1 mm 6 mps 753 mmHg 59%
    01:00 +12°C° 0.2 mm 5 mps 753 mmHg 61%
    02:00 +12°C° 0.2 mm 5 mps 753 mmHg 64%
    03:00 +12°C° 0.2 mm 5 mps 753 mmHg 66%
    04:00 +10°C° 0.4 mm 5 mps 753 mmHg 68%
    05:00 +10°C° 0.4 mm 5 mps 753 mmHg 70%
    06:00 +10°C° 0.4 mm 5 mps 753 mmHg 71%
    07:00 +10°C° 0 mm 6 mps 753 mmHg 65%
    08:00 +11°C° 0 mm 8 mps 754 mmHg 58%
    09:00 +11°C° 0 mm 9 mps 754 mmHg 52%
    10:00 +11°C° 0 mm 10 mps 754 mmHg 46%
    11:00 +11°C° 0 mm 11 mps 755 mmHg 40%
    12:00 +10°C° 0 mm 12 mps 755 mmHg 34%
    13:00 +10°C° 0 mm 12 mps 755 mmHg 29%
    14:00 +11°C° 0 mm 11 mps 755 mmHg 23%
    15:00 +11°C° 0 mm 10 mps 755 mmHg 18%
    16:00 +10°C° 0 mm 9 mps 756 mmHg 19%
    17:00 +9°C° 0 mm 7 mps 756 mmHg 21%
    18:00 +8°C° 0 mm 6 mps 757 mmHg 22%
    19:00 +7°C° 0 mm 5 mps 758 mmHg 25%
    20:00 +6°C° 0 mm 5 mps 758 mmHg 28%
    21:00 +5°C° 0 mm 5 mps 759 mmHg 31%
    22:00 +5°C° 0 mm 5 mps 759 mmHg 33%
    23:00 +4°C° 0 mm 4 mps 760 mmHg 36%

    25 January, Friday

    Time Temperature Precipitation Wind Pressure Humidity
    00:00 +4°C° 0 mm 4 mps 760 mmHg 38%
    01:00 +3°C° 0 mm 4 mps 760 mmHg 38%
    02:00 +3°C° 0 mm 4 mps 760 mmHg 39%
    03:00 +3°C° 0 mm 4 mps 760 mmHg 39%
    04:00 +3°C° 0 mm 4 mps 760 mmHg 40%
    05:00 +1°C° 0 mm 4 mps 760 mmHg 41%
    06:00 +1°C° 0 mm 4 mps 761 mmHg 41%
    07:00 +3°C° 0 mm 4 mps 761 mmHg 39%
    08:00 +4°C° 0 mm 4 mps 762 mmHg 36%
    09:00 +5°C° 0 mm 4 mps 762 mmHg 34%
    10:00 +7°C° 0 mm 4 mps 762 mmHg 30%
    11:00 +10°C° 0 mm 4 mps 762 mmHg 27%
    12:00 +12°C° 0 mm 4 mps 762 mmHg 23%
    13:00 +12°C° 0 mm 4 mps 762 mmHg 22%
    14:00 +13°C° 0 mm 3 mps 762 mmHg 20%
    15:00 +14°C° 0 mm 3 mps 762 mmHg 19%
    16:00 +13°C° 0 mm 2 mps 762 mmHg 25%
    17:00 +10°C° 0 mm 2 mps 762 mmHg 31%
    18:00 +8°C° 0 mm 1 mps 762 mmHg 37%
    19:00 +8°C° 0 mm 1 mps 762 mmHg 42%
    20:00 +7°C° 0 mm 1 mps 763 mmHg 46%
    21:00 +5°C° 0 mm 0 mps 763 mmHg 51%
    22:00 +6°C° 0 mm 1 mps 763 mmHg 52%
    23:00 +6°C° 0 mm 1 mps 763 mmHg 53%

    26 January, Saturday

    Time Temperature Precipitation Wind Pressure Humidity
    00:00 +6°C° 0 mm 1 mps 763 mmHg 54%
    01:00 +6°C° 0 mm 1 mps 763 mmHg 60%
    02:00 +6°C° 0 mm 1 mps 763 mmHg 67%
    03:00 +5°C° 0 mm 2 mps 762 mmHg 73%
    04:00 +5°C° 0 mm 2 mps 762 mmHg 75%
    05:00 +5°C° 0 mm 2 mps 762 mmHg 77%
    06:00 +5°C° 0 mm 2 mps 762 mmHg 78%
    07:00 +6°C° 0 mm 2 mps 762 mmHg 73%
    08:00 +8°C° 0 mm 2 mps 763 mmHg 68%
    09:00 +9°C° 0 mm 2 mps 763 mmHg 62%
    10:00 +11°C° 0 mm 3 mps 763 mmHg 56%
    11:00 +12°C° 0 mm 3 mps 762 mmHg 50%
    12:00 +14°C° 0 mm 3 mps 762 mmHg 44%
    13:00 +15°C° 0 mm 4 mps 761 mmHg 42%
    14:00 +15°C° 0 mm 4 mps 761 mmHg 39%
    15:00 +16°C° 0 mm 5 mps 760 mmHg 37%
    16:00 +14°C° 0 mm 5 mps 759 mmHg 43%
    17:00 +13°C° 0 mm 5 mps 759 mmHg 49%
    18:00 +10°C° 0 mm 6 mps 759 mmHg 55%
    19:00 +10°C° 0 mm 5 mps 759 mmHg 58%
    20:00 +9°C° 0 mm 5 mps 759 mmHg 61%
    21:00 +9°C° 0 mm 5 mps 759 mmHg 64%
    22:00 +8°C° 0 mm 4 mps 759 mmHg 65%
    23:00 +9°C° 0 mm 3 mps 758 mmHg 67%
    Show more